JE9BHE-13 Weather Reports


time (UTC)temp
F
wind
direction
speed
knots
gust
knots
rain 1hr
in
rain 24hr
in
rain mn
in
humidity
%
barometer
mb
20260504160308 47 79 2.6 3.5 0.00 0.40 0.00 93 1019.7
20260504150906 49 87 0.9 1.7 0.00 0.41 0.00 95 1019.8
20260504150607 49 85 1.7 1.7 0.00 0.41 0.00 95 1020.1
20260504150307 49 87 0.9 1.7 0.00 0.43 0.00 95 1019.7
20260504140906 51 140 0.0 1.7 0.00 0.43 0.43 94 1019.4
20260504140606 51 139 0.9 1.7 0.00 0.43 0.43 93 1019.6
20260504140306 51 157 0.9 1.7 0.00 0.43 0.43 93 1019.5
20260504130607 51 103 0.0 1.7 0.00 0.46 0.43 94 1019.2
20260504130307 51 97 0.0 1.7 0.00 0.47 0.43 94 1019.1
20260504120306 52 68 0.0 1.7 0.01 0.50 0.43 95 1018.6
20260504110606 52 237 0.9 1.7 0.04 0.52 0.43 94 1016.8
20260504110306 52 332 0.0 1.7 0.02 0.51 0.41 94 1017.1
20260504100606 53 207 0.0 1.7 0.01 0.53 0.39 91 1015.5
20260504100305 53 217 0.0 1.7 0.01 0.53 0.39 92 1015.4
20260504081806 54 163 1.7 3.5 0.05 0.47 0.32 91 1012.6
20260504081506 54 186 1.7 3.5 0.05 0.47 0.32 91 1012.4
20260504081206 54 191 0.0 3.5 0.06 0.47 0.32 92 1012.6
20260504080906 54 185 0.9 3.5 0.06 0.47 0.32 91 1012.6
20260504080606 55 200 1.7 3.5 0.06 0.48 0.32 91 1012.6
20260504080306 55 211 0.9 1.7 0.06 0.48 0.32 91 1012.4
20260504070306 56 130 5.2 11.3 0.07 0.46 0.26 87 1011.2
20260504050306 61 135 4.3 13.0 0.00 0.39 0.19 70 1008.2
20260504050006 62 146 6.1 13.0 0.00 0.39 0.19 72 1008.1
20260504045706 62 145 5.2 13.0 0.00 0.39 0.19 71 1008.2
20260504045405 62 141 3.5 14.8 0.00 0.39 0.19 69 1008.1
20260504045105 62 135 4.3 14.8 0.00 0.39 0.19 70 1008.1
20260504044505 62 143 6.1 13.0 0.00 0.39 0.19 66 1008.0
20260504044206 62 145 8.7 17.4 0.00 0.39 0.19 66 1007.8
20260504043906 63 150 6.1 17.4 0.00 0.39 0.19 67 1007.8
20260504043606 63 155 5.2 17.4 0.00 0.39 0.19 69 1007.7
20260504043305 63 147 10.4 17.4 0.00 0.39 0.19 67 1007.8
20260504043006 64 152 7.8 13.9 0.00 0.39 0.19 67 1007.6
20260504042706 64 137 6.1 17.4 0.00 0.39 0.19 66 1007.3
20260504042405 65 135 7.0 19.1 0.00 0.39 0.19 69 1007.7
20260504042106 65 139 10.4 20.0 0.00 0.39 0.19 68 1007.5
20260504041806 65 148 8.7 20.0 0.00 0.39 0.19 66 1007.5
20260504041506 65 146 10.4 20.0 0.00 0.39 0.19 68 1007.4
20260504040605 65 157 7.8 14.8 0.00 0.39 0.19 67 1007.1
20260504040305 64 155 6.1 17.4 0.00 0.39 0.19 71 1007.2
20260504040006 63 152 7.0 19.1 0.00 0.39 0.19 68 1007.2
20260504035706 63 145 9.6 19.1 0.00 0.39 0.19 68 1007.0
20260504035405 63 153 11.3 19.1 0.00 0.39 0.19 68 1006.6
20260504035106 63 153 12.2 19.1 0.00 0.39 0.19 67 1006.8
20260504034806 63 162 9.6 18.2 0.00 0.39 0.19 70 1006.9
20260504034206 63 157 9.6 20.9 0.00 0.39 0.19 69 1006.6
20260504033606 64 155 13.0 20.9 0.00 0.39 0.19 69 1006.4
20260504033006 64 153 12.2 18.2 0.00 0.39 0.19 69 1006.5
20260504032706 63 158 10.4 20.0 0.00 0.39 0.19 70 1006.6
20260504032406 64 156 12.2 20.0 0.00 0.39 0.19 68 1006.4
20260504032106 64 166 10.4 20.0 0.00 0.39 0.19 69 1006.2
20260504031506 65 158 9.6 15.6 0.00 0.39 0.19 71 1006.0
20260504031207 64 152 8.7 15.6 0.00 0.39 0.19 70 1006.2
20260504030906 64 152 9.6 14.8 0.00 0.39 0.19 71 1006.2
20260504030606 64 158 7.8 18.2 0.00 0.39 0.19 73 1006.2
20260504030305 64 157 5.2 18.2 0.00 0.39 0.19 73 1006.0
20260504025706 65 155 11.3 18.2 0.00 0.39 0.19 71 1006.1
20260504025406 66 157 9.6 19.1 0.00 0.39 0.19 70 1006.1
20260504025106 66 156 11.3 19.1 0.00 0.39 0.19 69 1006.1
20260504024806 65 159 9.6 19.1 0.00 0.39 0.19 72 1005.9
20260504024506 65 148 13.9 19.1 0.00 0.39 0.19 69 1006.0
20260504024207 65 140 11.3 17.4 0.00 0.39 0.19 71 1006.0
20260504023905 64 137 7.0 15.6 0.00 0.39 0.19 75 1005.9
20260504023605 64 147 7.0 20.9 0.00 0.39 0.19 74 1005.8
20260504023307 64 157 7.0 20.9 0.00 0.39 0.19 76 1005.9
20260504023006 63 159 7.8 20.9 0.00 0.39 0.19 76 1005.6
20260504022406 63 147 9.6 17.4 0.00 0.39 0.19 78 1005.7
20260504022106 63 147 11.3 17.4 0.00 0.39 0.19 79 1005.9
20260504021806 62 150 9.6 15.6 0.00 0.39 0.19 80 1005.9
20260504021506 62 157 8.7 13.0 0.00 0.39 0.19 81 1005.7
20260504021206 62 167 8.7 13.0 0.00 0.39 0.19 83 1006.0
20260504020906 61 173 7.0 14.8 0.00 0.39 0.19 85 1005.7
20260504020605 61 176 9.6 19.1 0.00 0.39 0.19 86 1005.8
20260504020305 61 188 7.8 19.1 0.00 0.39 0.19 86 1005.9
20260504020006 62 196 8.7 19.1 0.00 0.39 0.19 87 1005.7
20260504015706 62 204 5.2 13.0 0.00 0.39 0.19 87 1006.0
20260504015406 62 196 5.2 13.0 0.00 0.39 0.19 87 1005.8
20260504015106 63 185 5.2 13.9 0.00 0.39 0.19 85 1005.8
20260504014806 63 178 7.0 13.9 0.00 0.39 0.19 84 1005.9
20260504014506 63 170 7.0 13.9 0.00 0.39 0.19 83 1005.6
20260504014207 64 163 5.2 13.9 0.00 0.39 0.19 83 1005.5
20260504013906 64 163 5.2 13.9 0.00 0.39 0.19 83 1005.5
20260504013306 64 173 7.0 13.9 0.00 0.39 0.19 81 1005.3
20260504013006 64 183 7.8 12.2 0.00 0.39 0.19 81 1005.5
20260504012706 64 183 6.1 12.2 0.00 0.39 0.19 81 1005.6
20260504012405 64 179 7.0 13.0 0.00 0.39 0.19 81 1005.6
20260504012107 64 175 7.8 13.0 0.00 0.39 0.19 81 1005.5
20260504011806 64 176 7.0 13.9 0.00 0.39 0.19 81 1005.5
20260504011506 64 183 7.8 13.9 0.00 0.39 0.19 80 1005.4
20260504011206 64 184 7.8 13.9 0.00 0.39 0.19 81 1005.4
20260504010906 64 192 8.7 13.9 0.00 0.39 0.19 80 1005.6
20260504010606 65 185 6.1 13.9 0.00 0.39 0.19 82 1005.4
20260504005706 64 176 7.8 11.3 0.00 0.39 0.19 80 1005.2
20260504005406 64 181 6.1 9.6 0.00 0.39 0.19 81 1005.3
20260504004806 64 169 7.0 12.2 0.00 0.39 0.19 82 1005.1
20260504004506 64 172 7.0 13.0 0.00 0.39 0.19 82 1005.1
20260504004205 64 176 8.7 13.0 0.00 0.39 0.19 81 1004.9
20260504003905 64 172 7.0 13.9 0.00 0.39 0.19 82 1005.2
20260504003607 64 174 8.7 13.9 0.00 0.39 0.19 81 1005.0
20260504003306 64 171 7.0 13.9 0.00 0.39 0.19 84 1005.0
20260504003006 64 171 8.7 13.9 0.00 0.39 0.19 83 1005.1
20260504002705 64 168 7.8 13.0 0.00 0.39 0.19 83 1005.1
20260504002405 64 162 7.0 13.0 0.00 0.39 0.19 83 1005.2
20260504002106 64 163 7.0 11.3 0.00 0.39 0.19 83 1005.1
20260504001806 64 177 7.0 11.3 0.00 0.39 0.19 83 1005.2
20260504001506 64 175 7.8 11.3 0.00 0.39 0.19 83 1004.9
20260504001206 64 174 5.2 11.3 0.00 0.39 0.19 84 1005.0
20260504000905 64 170 7.0 11.3 0.00 0.39 0.19 82 1005.1
20260504000605 65 173 7.0 11.3 0.00 0.39 0.19 82 1005.1
20260504000305 65 176 5.2 11.3 0.00 0.39 0.19 82 1005.0
20260504000006 65 179 6.1 11.3 0.00 0.39 0.19 81 1005.0
20260503235706 65 173 7.0 9.6 0.00 0.39 0.19 81 1005.0
20260503235405 65 170 5.2 9.6 0.00 0.39 0.19 82 1005.2
20260503235106 66 166 4.3 7.0 0.00 0.39 0.19 82 1005.0
20260503234808 67 171 3.5 7.0 0.00 0.39 0.19 79 1004.6
20260503234507 67 169 3.5 7.0 0.00 0.39 0.19 80 1004.8
20260503234207 66 169 4.3 7.0 0.00 0.39 0.19 82 1004.8
20260503233908 66 160 3.5 6.1 0.00 0.39 0.19 82 1004.9
20260503233607 67 141 3.5 6.1 0.00 0.39 0.19 81 1004.9
20260503233308 67 147 1.7 3.5 0.00 0.39 0.19 82 1004.8
20260503233007 67 153 1.7 3.5 0.00 0.39 0.19 83 1004.8
20260503232707 66 217 0.0 3.5 0.00 0.39 0.19 84 1004.7
20260503232407 65 212 1.7 3.5 0.00 0.39 0.19 86 1004.8
20260503232107 64 253 0.0 1.7 0.00 0.39 0.19 88 1004.8
20260503231807 64 240 0.0 1.7 0.00 0.39 0.19 88 1004.6
20260503231508 64 244 0.0 1.7 0.00 0.39 0.19 88 1004.6
20260503231207 64 246 0.9 1.7 0.00 0.39 0.19 88 1004.9
20260503230907 64 252 0.9 1.7 0.00 0.39 0.19 88 1005.0
20260503230607 65 235 0.0 1.7 0.00 0.39 0.19 88 1004.8
20260503230307 65 212 0.0 1.7 0.00 0.39 0.19 87 1004.9
20260503230008 64 212 0.0 1.7 0.00 0.39 0.19 87 1004.9
20260503225707 64 181 0.0 1.7 0.00 0.39 0.19 86 1004.6
20260503225407 64 337 0.0 1.7 0.00 0.39 0.19 86 1004.7
20260503225107 64 337 0.0 1.7 0.00 0.39 0.19 86 1004.7
20260503224807 64 337 0.0 1.7 0.00 0.39 0.19 86 1004.8
20260503224507 64 337 0.0 1.7 0.00 0.39 0.19 86 1004.8
20260503224207 64 46 0.0 1.7 0.00 0.39 0.19 86 1005.0
20260503223907 64 46 0.0 1.7 0.00 0.39 0.19 85 1004.8
20260503223007 64 26 0.0 1.7 0.00 0.39 0.19 87 1004.8
20260503222708 64 25 0.0 1.7 0.00 0.39 0.19 89 1005.0
20260503222407 64 1 0.0 1.7 0.00 0.39 0.19 90 1004.7
20260503222108 64 0 0.0 0.0 0.00 0.39 0.19 91 1004.9
20260503221808 63 314 0.0 1.7 0.00 0.39 0.19 92 1004.5
20260503221207 62 19 0.0 1.7 0.00 0.39 0.19 94 1004.5
20260503220607 62 46 0.0 1.7 0.00 0.39 0.19 94 1004.8
20260503220307 62 37 0.0 1.7 0.00 0.39 0.19 94 1004.6
20260503220007 61 36 0.0 1.7 0.00 0.39 0.19 95 1004.5
20260503215407 61 22 0.9 1.7 0.00 0.39 0.19 95 1005.0
20260503215107 61 23 0.0 1.7 0.00 0.39 0.19 95 1004.7
20260503214808 60 23 0.0 1.7 0.00 0.39 0.19 95 1005.0
20260503214507 60 1 0.0 1.7 0.00 0.39 0.19 95 1005.0
20260503214207 60 1 0.0 1.7 0.00 0.39 0.19 95 1004.9
20260503213907 60 1 0.0 1.7 0.00 0.39 0.19 95 1005.0
20260503213609 60 0 0.0 0.0 0.00 0.39 0.19 95 1004.9
20260503213307 60 1 0.0 1.7 0.00 0.39 0.19 95 1005.0
20260503213007 60 1 0.0 1.7 0.00 0.39 0.19 95 1005.1
20260503212707 60 1 0.0 1.7 0.00 0.39 0.19 95 1004.9
20260503212407 60 342 0.0 1.7 0.00 0.39 0.19 95 1004.9
20260503212107 60 339 0.0 1.7 0.00 0.39 0.19 95 1004.5
20260503211806 60 325 0.0 3.5 0.00 0.39 0.19 95 1004.8
20260503211506 60 317 0.0 3.5 0.00 0.39 0.19 95 1004.4
20260503211207 60 309 1.7 3.5 0.00 0.39 0.19 95 1004.4
20260503210907 60 311 1.7 1.7 0.00 0.39 0.19 95 1004.5
20260503210607 60 321 1.7 3.5 0.00 0.39 0.19 95 1004.5
20260503205707 60 317 1.7 3.5 0.00 0.39 0.19 95 1004.3
20260503205407 60 327 0.9 3.5 0.00 0.39 0.19 94 1004.4
20260503204808 60 313 0.9 5.2 0.00 0.39 0.19 94 1004.0
20260503204507 60 309 0.0 5.2 0.00 0.39 0.19 94 1004.0
20260503204207 60 296 1.7 3.5 0.00 0.39 0.19 95 1004.2
20260503203907 60 297 1.7 3.5 0.00 0.39 0.19 95 1004.4
20260503203607 60 297 0.9 6.1 0.00 0.39 0.19 95 1004.2
20260503203308 60 314 1.7 6.1 0.00 0.39 0.19 95 1004.4
20260503202707 60 241 1.7 6.1 0.00 0.39 0.19 95 1003.9
20260503202407 60 209 1.7 5.2 0.00 0.39 0.19 95 1004.2
20260503202108 60 187 3.5 5.2 0.00 0.39 0.19 94 1004.3
20260503201507 60 174 1.7 3.5 0.00 0.39 0.19 94 1004.2
20260503201207 60 174 1.7 3.5 0.00 0.39 0.19 94 1004.3
20260503200908 60 162 1.7 6.1 0.00 0.39 0.19 94 1004.3
20260503200607 60 158 1.7 6.1 0.00 0.39 0.19 93 1004.0
20260503200307 60 153 1.7 6.1 0.01 0.39 0.19 93 1004.3
20260503200008 61 153 2.6 6.1 0.01 0.39 0.19 92 1004.0
20260503195707 61 167 2.6 6.1 0.01 0.39 0.19 92 1003.8
20260503195407 61 157 2.6 5.2 0.01 0.39 0.19 92 1003.9
20260503195108 61 195 1.7 5.2 0.01 0.39 0.19 91 1003.5
20260503194807 61 255 3.5 5.2 0.01 0.39 0.19 91 1003.4
20260503194208 61 274 1.7 6.1 0.02 0.39 0.19 91 1003.1
20260503193907 61 245 1.7 6.1 0.02 0.39 0.19 91 1003.2
20260503193307 61 241 3.5 5.2 0.04 0.39 0.19 92 1003.3
20260503193007 60 338 1.7 3.5 0.05 0.39 0.19 92 1002.9
20260503192707 60 330 0.9 1.7 0.05 0.39 0.19 93 1003.0
20260503192407 60 323 0.0 1.7 0.06 0.39 0.19 93 1002.6
20260503192107 60 331 1.7 1.7 0.06 0.39 0.19 93 1002.7
20260503191807 61 333 1.7 1.7 0.06 0.39 0.19 93 1002.9
20260503191507 61 337 0.0 1.7 0.06 0.39 0.19 92 1002.5
20260503190908 61 314 0.0 3.5 0.06 0.39 0.19 92 1002.4
20260503190607 61 312 0.9 3.5 0.06 0.39 0.19 92 1002.1
20260503190307 61 245 0.0 5.2 0.05 0.38 0.18 92 1002.2
20260503190007 61 183 0.0 7.0 0.05 0.38 0.18 92 1002.0
20260503185707 61 164 0.9 9.6 0.05 0.38 0.18 92 1002.1
20260503185407 61 151 2.6 9.6 0.05 0.38 0.18 91 1001.8
20260503185108 61 152 4.3 9.6 0.05 0.38 0.18 90 1001.9
20260503184807 61 157 4.3 9.6 0.05 0.38 0.18 90 1002.0
20260503184507 61 140 7.0 9.6 0.06 0.38 0.18 91 1002.2
20260503184207 61 144 6.1 9.6 0.05 0.37 0.17 92 1002.0
20260503183907 61 145 4.3 9.6 0.05 0.37 0.17 91 1001.9
20260503183607 61 159 3.5 9.6 0.05 0.35 0.15 92 1002.0
20260503183307 61 159 4.3 9.6 0.06 0.35 0.15 91 1002.1
20260503183007 61 154 5.2 9.6 0.05 0.34 0.14 92 1001.9
20260503182707 61 159 5.2 7.8 0.06 0.34 0.14 92 1002.0
20260503182408 61 153 6.1 7.8 0.06 0.33 0.13 92 1002.0
20260503181807 61 163 4.3 7.8 0.07 0.33 0.13 93 1001.8
20260503181507 61 163 3.5 9.6 0.07 0.33 0.13 93 1001.9
20260503181208 61 162 3.5 9.6 0.08 0.33 0.13 94 1001.6
20260503180607 61 167 5.2 11.3 0.08 0.33 0.13 95 1001.7
20260503180007 61 183 3.5 11.3 0.08 0.33 0.13 96 1001.4
20260503175707 61 184 3.5 9.6 0.09 0.33 0.13 96 1001.4
20260503175407 61 197 5.2 9.6 0.09 0.33 0.13 96 1001.5
20260503175108 61 196 4.3 9.6 0.09 0.33 0.13 97 1001.4
20260503174807 61 194 3.5 11.3 0.08 0.32 0.12 97 1001.4
20260503174507 61 187 3.5 11.3 0.08 0.32 0.12 97 1001.3
20260503174208 61 176 4.3 11.3 0.09 0.32 0.12 97 1001.3
20260503173907 61 176 3.5 9.6 0.08 0.31 0.11 97 1001.2
20260503173007 62 198 3.5 9.6 0.07 0.30 0.09 97 1001.0
20260503172707 63 237 1.7 3.5 0.06 0.28 0.08 96 1001.2
20260503172407 63 229 1.7 3.5 0.05 0.27 0.07 96 1001.0
20260503172107 62 181 0.9 1.7 0.04 0.26 0.06 96 1001.1
20260503171808 62 0 0.0 0.0 0.04 0.26 0.06 96 1001.3
20260503171507 62 0 0.0 0.0 0.04 0.26 0.06 96 1001.3
20260503170907 62 342 0.0 1.7 0.02 0.25 0.05 95 1001.3
20260503170607 62 342 0.0 1.7 0.02 0.25 0.05 95 1001.2
20260503170307 63 337 0.0 1.7 0.02 0.25 0.05 95 1001.1